Lapse_Rate
5.5 5.4 5.4 5.2 5.0 4.7 4.4 4.5 4.3 4.4 4.5 4.7 4.9 5.1 5.3 5.4 5.7 6.0 6.3 6.4 6.8 7.0
5.5 5.2 4.9 4.4 4.3 4.4 4.2 4.3 4.4 4.5 4.7 4.7 4.5 4.7 5.3 5.7 6.4 7.3 7.2 7.3 7.2 6.8
4.9 4.8 4.5 4.1 4.0 4.1 4.4 4.4 4.5 4.5 4.7 4.7 5.1 5.5 6.6 7.6 7.6 7.7 7.7 7.9 7.4 7.1
4.7 4.6 4.3 4.0 3.9 4.0 4.1 4.1 4.2 4.5 4.7 5.4 6.8 7.1 7.4 7.1 7.7 7.6 7.8 7.7 7.2 7.4
4.5 4.1 3.8 3.6 3.7 3.7 4.1 4.3 4.8 4.8 5.2 6.4 7.4 7.2 7.1 7.3 7.6 7.7 7.4 7.1 7.1 7.1
4.3 3.8 3.5 3.7 3.8 4.1 4.2 4.5 4.6 5.1 6.2 7.4 7.5 7.4 7.2 7.5 7.4 7.2 7.1 6.9 6.9 6.9
3.9 3.7 3.6 3.8 4.1 4.3 4.4 4.5 4.9 5.8 6.5 6.7 7.4 7.1 7.1 7.2 7.4 7.2 6.9 6.9 6.9 6.9
3.8 4.0 4.4 4.3 4.3 4.5 4.6 5.0 5.8 6.1 6.5 7.2 7.5 7.2 7.2 7.5 7.5 7.1 7.0 6.9 6.8 6.9
4.2 4.3 4.4 4.4 4.5 4.8 5.0 5.8 6.1 6.1 6.7 7.2 7.3 7.3 7.4 7.5 7.1 7.0 6.9 6.9 6.9 7.0
4.3 4.5 4.5 4.6 5.0 5.1 6.1 6.2 6.4 6.6 7.0 7.1 7.1 7.2 7.2 7.2 7.0 6.9 6.9 6.8 7.0 7.0
4.6 4.5 4.6 5.0 5.3 6.1 6.5 6.8 7.0 6.9 6.8 7.0 7.0 7.1 7.1 7.0 6.9 6.8 6.8 6.9 7.0 7.1
4.4 4.6 4.8 5.3 6.0 6.6 6.8 7.1 7.0 6.8 6.7 6.8 7.0 7.0 7.1 7.1 6.9 7.1 7.1 7.1 7.0 7.0
4.7 5.0 5.5 5.9 6.5 6.8 7.0 6.9 6.8 6.6 6.8 7.0 7.1 7.2 7.1 6.9 6.8 7.0 7.0 7.1 6.9 6.9
5.2 5.6 5.9 6.4 6.7 7.0 6.8 6.6 6.5 6.7 6.9 7.1 7.2 7.1 7.0 6.7 6.7 6.8 7.0 7.0 6.9 6.8
Wind_Speed
5 3 3 4 4 4 4 4 6 5 6 6 6 6 6 2 3 4 4 6 4 3
5 5 5 7 5 4 5 4 8 9 6 6 6 6 5 3 5 3 4 5 4 2
6 7 6 5 7 7 6 6 5 5 5 4 6 5 5 4 4 4 4 2 2 1
6 4 5 5 6 6 5 5 4 4 2 4 5 4 4 5 4 1 1 2 3 4
5 5 6 6 6 6 5 5 3 3 4 5 3 6 4 4 3 2 2 4 5 5
5 5 6 6 7 5 5 3 3 5 9 8 6 4 3 3 2 1 3 5 5 6
4 5 5 6 6 5 3 3 2 3 6 9 6 4 3 2 1 3 5 5 6 5
5 6 6 6 6 6 6 3 3 5 6 5 2 1 1 1 3 5 5 6 6 6
5 6 6 6 7 7 5 4 4 4 2 4 1 2 1 4 4 5 5 6 7 7
5 5 6 7 7 7 6 2 4 4 4 2 3 4 9 10 4 4 6 6 7 8
5 5 6 6 6 5 3 2 2 2 3 2 3 8 7 8 4 5 6 7 8 8
5 6 6 6 5 2 1 3 3 3 3 4 4 7 7 6 3 5 7 8 8 9
5 6 6 5 4 2 4 2 3 3 3 5 3 8 10 9 2 4 6 7 9 14
5 6 6 4 5 2 1 3 3 1 1 3 4 4 9 12 1 3 5 6 6 7
Wind_Direction
147 173 189 197 198 210 208 217 230 239 219 228 220 230 231 227 240 265 283 281 283 290
202 195 211 217 200 210 220 224 221 220 221 235 248 255 250 263 273 279 276 272 281 279
236 228 224 211 224 230 243 245 238 249 255 248 243 251 274 274 284 292 296 297 349 352
250 260 243 243 257 253 285 304 284 268 274 275 270 289 268 277 279 264 79 14 339 308
261 261 281 282 288 265 252 272 275 335 269 260 262 247 245 252 158 129 325 310 302 293
325 305 283 277 278 283 252 253 327 2 322 289 256 252 220 152 125 46 283 282 286 286
343 302 323 328 321 281 247 232 302 314 255 269 262 238 182 129 81 287 277 285 278 278
342 344 333 320 301 282 253 235 285 289 276 277 292 236 163 45 293 289 290 286 285 281
339 330 314 302 291 283 266 265 266 299 342 42 16 190 315 300 290 292 293 297 295 290
321 315 316 309 306 295 272 289 53 26 59 55 338 326 339 354 347 322 309 305 305 307
318 311 309 311 326 348 30 58 55 115 85 55 21 15 34 25 5 330 316 311 304 304
313 309 312 324 320 326 336 329 110 106 75 55 27 19 12 354 326 318 311 308 310 310
319 305 301 320 341 317 298 146 117 94 62 83 34 6 1 354 299 296 318 319 315 316
317 309 302 311 322 318 78 105 70 79 57 68 38 352 355 355 290 296 325 321 319 316